Kekaha, HI

12:03 AM HST on February 11, 2016 (GMT -1000)
Barking Sands PMRF

Weather History for PHBK - October, 2012

Change the Weather History Date:

Wednesday, October 10, 2012

  Actual Average (PHLI) Record (PHLI)
Temperature  
Mean Temperature 78 °F 79 °F  
Max Temperature 82 °F 84 °F 87 °F (1984)
Min Temperature 73 °F 73 °F 65 °F (1965)
Degree Days  
Heating Degree Days 0 0  
Month to date heating degree days 0  
Since 1 July heating degree days 0  
Cooling Degree Days 12 14  
Month to date cooling degree days 140  
Year to date cooling degree days 3099  
Growing Degree Days 28 (Base 50)    
Moisture  
Dew Point 68 °F    
Average Humidity 68    
Maximum Humidity 89    
Minimum Humidity 40    
Precipitation  
Precipitation 0.01 in 0.11 in 7.85 in (1966)
Month to date precipitation 1.03  
Year to date precipitation 24.60  
Sea Level Pressure  
Sea Level Pressure 30.04 in    
Wind  
Wind Speed 3 mph (WNW)    
Max Wind Speed 12 mph    
Max Gust Speed -    
Visibility 10 miles    
Events Rain    
T = Trace of Precipitation, MM = Missing Value Source: NWS Daily Summary

Daily Weather History Graph

Daily Weather History Graph

Search for Another Location

Airport or City:

Trip Planner

Search our weather history database for the weather conditions in past years. The results will help you decide how hot, cold, wet, or windy it might be!

Date:

Astronomy

Oct. 10, 2012 Rise Set
Actual Time 6:33 AM HST 6:17 PM HST
Civil Twilight 6:11 AM HST 6:40 PM HST
Nautical Twilight 5:45 AM HST 7:06 PM HST
Astronomical Twilight 5:19 AM HST 7:32 PM HST
Moon 1:56 AM HST (10/10) 2:57 PM HST (10/10)
Length of Visible Light 12h 28m
Length of Day
11h 44m
Waning Crescent, 25% of the Moon is Illuminated
Oct 10
Waning Crescent
Oct 15
New
Oct 21
First Quarter
Oct 29
Full
Nov 6
Last Quarter

Hourly Weather History & Observations

Time (HST) Temp. Heat Index Dew Point Humidity Pressure Visibility Wind Dir Wind Speed Gust Speed Precip Events Conditions
12:16 AM 78.8 °F - 66.2 °F 65% 30.05 in 10.0 mi Calm Calm - 0.00 in Rain Light Rain
12:56 AM 78.1 °F - 66.0 °F 66% 30.05 in 10.0 mi South 3.5 mph - 0.00 in Rain Light Rain
1:56 AM 78.1 °F - 66.0 °F 66% 30.04 in 10.0 mi SE 4.6 mph - 0.00 in   Mostly Cloudy
2:56 AM 77.0 °F - 64.0 °F 64% 30.02 in 10.0 mi SSE 3.5 mph - N/A   Partly Cloudy
3:56 AM 75.0 °F - 61.0 °F 62% 30.02 in 10.0 mi Calm Calm - N/A   Partly Cloudy
4:56 AM 73.9 °F - 66.0 °F 76% 30.03 in 10.0 mi Calm Calm - N/A   Clear
5:56 AM 75.0 °F - 60.1 °F 60% 30.04 in 10.0 mi Calm Calm - N/A   Clear
6:56 AM 75.0 °F - 57.0 °F 53% 30.06 in 10.0 mi East 3.5 mph - N/A   Clear
7:56 AM 79.0 °F - 53.1 °F 40% 30.06 in 10.0 mi Calm Calm - N/A   Clear
8:56 AM 82.9 °F - - N/A% 30.08 in 10.0 mi Variable 3.5 mph - N/A   Clear
9:56 AM 82.9 °F 86.5 °F 69.1 °F 63% 30.08 in 10.0 mi SSW 9.2 mph - N/A   Mostly Cloudy
10:04 AM 82.4 °F 86.3 °F 69.8 °F 66% 30.08 in 10.0 mi SSW 6.9 mph - N/A   Overcast
10:56 AM 82.9 °F 86.5 °F 69.1 °F 63% 30.08 in 10.0 mi SW 8.1 mph - N/A   Overcast
11:37 AM 82.4 °F 86.3 °F 69.8 °F 66% 30.06 in 6.2 mi SW 5.8 mph - N/A   Overcast
11:56 AM 82.0 °F 85.5 °F 69.1 °F 65% 30.06 in 9.0 mi SW 5.8 mph - N/A   Overcast
12:37 PM 82.4 °F 86.3 °F 69.8 °F 66% 30.04 in 10.0 mi West 4.6 mph - N/A   Overcast
12:56 PM 82.9 °F 87.0 °F 70.0 °F 65% 30.04 in 10.0 mi West 4.6 mph - N/A   Mostly Cloudy
1:28 PM 82.4 °F 87.2 °F 71.6 °F 70% 30.02 in 10.0 mi WNW 5.8 mph - N/A   Mostly Cloudy
1:49 PM 82.4 °F 86.3 °F 69.8 °F 66% 30.02 in 10.0 mi WNW 5.8 mph - N/A   Mostly Cloudy
1:56 PM 82.9 °F 86.5 °F 69.1 °F 63% 30.02 in 10.0 mi WNW 5.8 mph - N/A   Mostly Cloudy
2:04 PM 82.4 °F 86.3 °F 69.8 °F 66% 30.01 in 10.0 mi NW 4.6 mph - N/A   Overcast
2:45 PM 82.4 °F 86.3 °F 69.8 °F 66% 30.01 in 10.0 mi NNW 6.9 mph - N/A   Overcast
2:56 PM 82.9 °F 86.5 °F 69.1 °F 63% 30.01 in 10.0 mi NNW 6.9 mph - N/A   Overcast
3:05 PM 82.4 °F 86.3 °F 69.8 °F 66% 30.01 in 10.0 mi North 9.2 mph - N/A   Overcast
3:13 PM 82.4 °F 86.3 °F 69.8 °F 66% 30.01 in 10.0 mi North 11.5 mph - N/A   Overcast
3:56 PM 79.0 °F - 72.0 °F 79% 30.02 in 10.0 mi NE 3.5 mph - 0.01 in Rain Light Rain
4:19 PM 78.8 °F - 69.8 °F 74% 30.02 in 10.0 mi NNE 3.5 mph - N/A   Overcast
4:56 PM 80.1 °F 83.8 °F 72.0 °F 76% 30.03 in 8.0 mi NW 5.8 mph - N/A   Overcast
5:12 PM 78.8 °F - 75.2 °F 89% 30.02 in 6.2 mi Calm Calm - N/A   Overcast
5:31 PM 78.8 °F - 69.8 °F 74% 30.02 in 10.0 mi Calm Calm - N/A   Overcast
5:56 PM 79.0 °F - 69.1 °F 72% 30.03 in 10.0 mi Calm Calm - N/A   Mostly Cloudy
6:56 PM 78.1 °F - - N/A% 30.04 in 10.0 mi Calm Calm - N/A   Clear
7:56 PM 77.0 °F - 69.1 °F 76% 30.06 in 10.0 mi SE 5.8 mph - N/A   Clear
8:56 PM 75.9 °F - 69.1 °F 79% 30.09 in 10.0 mi Calm Calm - N/A   Clear
9:56 PM 75.0 °F - 66.9 °F 76% 30.10 in 10.0 mi Calm Calm - N/A   Clear
10:56 PM 75.0 °F - 66.0 °F 73% 30.10 in 10.0 mi ENE 4.6 mph - N/A   Clear
11:56 PM 73.9 °F - 64.9 °F 73% 30.09 in 10.0 mi East 3.5 mph - N/A   Clear